Location: Beetenbrück
(52.8113°N, 9.5946°E)
Time: 22:07:00
(UTC+00:00)

Meteor 2-3 Rocket - Pass Details

Date: 14 April 2026
Orbit: 845 x 880 km, 81.2° (Epoch: 12 May)

Event Time Altitude Azimuth Distance (km) Brightness Sun altitude
Rises 23:12:47 0° 344° (NNW) 3,434 8.1 -27.5°
Reaches altitude 10° 23:15:15 10° 340° (NNW) 2,490 7.0 -27.5°
Enters shadow 23:20:43 55° 265° (W) 1,013 4.0 -27.5°
